This is the latest recevied weather packets stored in our database for station/object AE6BH. If no packets are shown the sender has not sent any weather packets the latest 10 day(s).
| Time | Temp. | Humidity | Pressure | Rain* | Wind** | Luminosity | Snow |
|---|---|---|---|---|---|---|---|
| 1777503441 | 20.56° C | 46% | 1015.5 hPa | 0 mm | - | 69 W/m² | - |
| 1777503136 | 21.11° C | 44% | 1015.2 hPa | 0 mm | - | 182 W/m² | - |
| 1777502835 | 21.11° C | 44% | 1015.5 hPa | 0 mm | - | 419 W/m² | - |
| 1777502531 | 20.56° C | 45% | 1015.7 hPa | 0 mm | - | 563 W/m² | - |
| 1777502229 | 20.56° C | 47% | 1015.3 hPa | 0 mm | - | 569 W/m² | - |
| 1777501925 | 21.11° C | 47% | 1015.5 hPa | 0 mm | - | 593 W/m² | - |
| 1777501623 | 21.11° C | 48% | 1015.2 hPa | 0 mm | - | 614 W/m² | - |
| 1777501319 | 21.67° C | 46% | 1015.3 hPa | 0 mm | - | 609 W/m² | - |
| 1777501017 | 21.11° C | 46% | 1015.5 hPa | 0 mm | - | 644 W/m² | - |
| 1777500715 | 21.67° C | 46% | 1015.1 hPa | 0 mm | - | 661 W/m² | - |
| 1777500411 | 22.78° C | 44% | 1015.5 hPa | 0 mm | - | 661 W/m² | - |
| 1777500107 | 22.22° C | 41% | 1015.5 hPa | 0 mm | - | 663 W/m² | - |
| 1777499805 | 22.78° C | 41% | 1015.7 hPa | 0 mm | - | 707 W/m² | - |
| 1777499500 | 22.78° C | 40% | 1015.3 hPa | 0 mm | - | 708 W/m² | - |
| 1777499199 | 21.67° C | 43% | 1015.5 hPa | 0 mm | - | 698 W/m² | - |
| 1777498895 | 22.22° C | 41% | 1015.7 hPa | 0 mm | - | 692 W/m² | - |
| 1777498592 | 22.78° C | 41% | 1015.5 hPa | 0 mm | - | 695 W/m² | - |
| 1777498288 | 22.78° C | 39% | 1015.6 hPa | 0 mm | - | 735 W/m² | - |
| 1777497987 | 23.33° C | 38% | 1015.7 hPa | 0 mm | - | 724 W/m² | - |
| 1777497682 | 22.78° C | 37% | 1015.6 hPa | 0 mm | - | 694 W/m² | - |
| 1777497379 | 23.89° C | 35% | 1015.7 hPa | 0 mm | - | 749 W/m² | - |
| 1777497075 | 23.89° C | 40% | 1015.7 hPa | 0 mm | - | 750 W/m² | - |
| 1777496772 | 23.33° C | 40% | 1015.7 hPa | 0 mm | - | 717 W/m² | - |
| 1777496469 | 23.33° C | 40% | 1015.8 hPa | 0 mm | - | 729 W/m² | - |
| 1777496165 | 23.33° C | 40% | 1015.6 hPa | 0 mm | - | 743 W/m² | - |
* Rain latest hour (hover to see other rain measurements)
** Current wind speed in m/s (hover to see current wind gust speed)